This is the latest recevied weather packets stored in our database for station/object LX2MT-13. If no packets are shown the sender has not sent any weather packets the latest 10 day(s).
| Time | Temp. | Humidity | Pressure | Rain* | Wind** | Luminosity | Snow |
|---|---|---|---|---|---|---|---|
| 1777478121 | 29.44° C | 22% | 1022.7 hPa | - | - | - | - |
| 1777474521 | 29.44° C | 23% | 1022.8 hPa | - | - | - | - |
| 1777470921 | 30° C | 24% | 1022.8 hPa | - | - | - | - |
| 1777467321 | 30° C | 24% | 1023 hPa | - | - | - | - |
| 1777463721 | 29.44° C | 25% | 1023.1 hPa | - | - | - | - |
| 1777460120 | 30° C | 25% | 1023.2 hPa | - | - | - | - |
| 1777456520 | 30° C | 24% | 1023.2 hPa | - | - | - | - |
| 1777452920 | 30° C | 24% | 1023 hPa | - | - | - | - |
| 1777449320 | 29.44° C | 24% | 1023.2 hPa | - | - | - | - |
| 1777445720 | 28.89° C | 25% | 1023.1 hPa | - | - | - | - |
| 1777442120 | 28.89° C | 23% | 1022.7 hPa | - | - | - | - |
| 1777438520 | 28.89° C | 23% | 1022.6 hPa | - | - | - | - |
| 1777434920 | 28.89° C | 23% | 1022.1 hPa | - | - | - | - |
| 1777431320 | 28.89° C | 24% | 1021.8 hPa | - | - | - | - |
| 1777427720 | 28.89° C | 24% | 1021.6 hPa | - | - | - | - |
| 1777424120 | 28.89° C | 24% | 1021.7 hPa | - | - | - | - |
| 1777420520 | 28.89° C | 24% | 1021.7 hPa | - | - | - | - |
| 1777416920 | 28.89° C | 24% | 1021.5 hPa | - | - | - | - |
| 1777413320 | 28.89° C | 24% | 1021.1 hPa | - | - | - | - |
| 1777409720 | 28.89° C | 24% | 1020.6 hPa | - | - | - | - |
| 1777406120 | 28.33° C | 24% | 1020.2 hPa | - | - | - | - |
| 1777402520 | 28.33° C | 23% | 1019.4 hPa | - | - | - | - |
| 1777398919 | 28.33° C | 22% | 1018.7 hPa | - | - | - | - |
| 1777395319 | 28.89° C | 21% | 1018.4 hPa | - | - | - | - |
| 1777391719 | 29.44° C | 23% | 1018.1 hPa | - | - | - | - |
* Rain since midnight (hover to see other rain measurements)
** Current wind speed in m/s (hover to see current wind gust speed)